Location: Unspecified
(0.0000°N, 0.0000°E)
Time: 06:16:47
(UTC+00:00)

Eole - Pass Details

Date: 21 May 2026
Orbit: 620 x 764 km, 50.1° (Epoch: 8 June)

Event Time Altitude Azimuth Distance (km) Brightness Sun altitude
Rises 20:05:31 0° 217° (SW) 3,108 10.3 -30.0°
Reaches altitude 10° 20:07:57 10° 217° (SW) 2,164 9.4 -30.6°
Enters shadow 20:08:15 12° 217° (SW) 2,045 9.3 -30.6°
